Regional Weather Roundup
Issued by NWS Bismarck, ND

Home | Current Version | Previous Version | Text Only | Print | Product List | Glossary On
Versions: 1 2 3 4 5 6 7 8 9 10 11 12 13 14 15 16 17 18 19 20 21 22 23 24 25 26 27 28 29 30 31 32 33 34 35 36 37 38 39 40 41 42 43 44 45 46 47 48 49 50
000
ASUS43 KBIS 280202
RWRBIS

NWR BROADCAST TEXT
NATIONAL WEATHER SERVICE BISMARCK ND
900 PM CDT FRI MAY 27 2016

NOTE: "FAIR" INDICATES FEW OR NO CLOUDS BELOW 12,000 FEET WITH NO
SIGNIFICANT WEATHER AND/OR OBSTRUCTIONS TO VISIBILITY.


CITY           SKY/WX    TMP DP  RH WIND       PRES   REMARKS
WILLISTON      CLOUDY    61  52  72 E8        29.84S
MINOT          PTCLDY    62  55  77 NE10      29.82R
MINOT AFB      CLOUDY    61  56  83 NE10      29.82R
BISMARCK       MOCLDY    65  51  60 E6        29.80R
DICKINSON      PTCLDY    61  44  53 E5        29.80R
GARRISON         N/A     65  49  56 CALM      29.81R
HETTINGER ARPT CLEAR     63  46  54 CALM      29.83R
JAMESTOWN      CLOUDY    66  54  65 NE3       29.77S
CARRINGTON     FAIR      68  50  52 N5        29.81S
HAZEN          FAIR      63  50  63 N7        29.83R
MANDAN         FAIR      64  50  59 E6        29.81S
OAKES            N/A    N/A N/A N/A MISG        N/A
STANLEY        CLOUDY    57  57 100 VRB5      29.87S
$$

CITY           SKY/WX    TMP DP  RH WIND       PRES   REMARKS
GRAND FORKS    CLOUDY    71  57  61 NE7       29.76S
GRAND FORKS AF CLOUDY    69  53  57 NE2       29.78R
DEVILS LAKE    PTCLDY    63  56  78 N10       29.82R
FARGO          CLOUDY    63  59  87 NW5       29.77S
CAVALIER       FAIR      64  59  82 N13       29.80R
GRAFTON        FAIR      68  57  68 CALM      29.79S
GWINNER        FAIR      61  61 100 N10       29.77S
LANGDON        CLOUDY    61  61 100 N15       29.84R
$$

CITY           SKY/WX    TMP DP  RH WIND       PRES   REMARKS
ABERDEEN       CLOUDY    64  59  83 N7        29.75S
MOBRIDGE       MOCLDY    66  53  63 CALM      29.76S
BUFFALO          N/A     63  49  60 CALM      29.77R
RAPID CITY     CLOUDY    59  49  69 S7        29.84R
GLASGOW        PTCLDY    63  49  60 E17       29.81R
SIDNEY         CLOUDY    64  50  59 NE10      29.82S
WOLF POINT     CLOUDY    67  48  50 E9        29.82R
GLENDIVE       CLEAR     63  50  63 NE10      29.84R
MILES CITY     PTCLDY    65  49  56 NE3       29.81R
BAKER          LGT RAIN  59  48  67 SE13      29.83R
$$

CITY           SKY/WX    TMP DP  RH WIND       PRES   REMARKS
BILLINGS       CLOUDY    54  48  80 E7        29.87R
GREAT FALLS    CLOUDY    57  36  45 NW5       29.89R
$$





USA.gov is the U.S. government's official web portal to all federal, state and local government web resources and services.